This is the latest recevied weather packets stored in our database for station/object KC8UZG. If no packets are shown the sender has not sent any weather packets the latest 10 day(s).
| Time | Temp. | Humidity | Pressure | Rain* | Wind** | Luminosity | Snow |
|---|---|---|---|---|---|---|---|
| 1777742121 | 10.56° C | 50% | - | 0 mm | - | 456 W/m² | - |
| 1777741527 | 10.56° C | 49% | 1017.4 hPa | 0 mm | - | 462 W/m² | - |
| 1777740933 | 10° C | 52% | 1017.7 hPa | 0 mm | - | 436 W/m² | - |
| 1777740339 | 10° C | 52% | 1017.7 hPa | 0 mm | - | 423 W/m² | - |
| 1777739718 | 10° C | 50% | 1017.7 hPa | 0 mm | - | 397 W/m² | - |
| 1777739124 | 10° C | 52% | 1017.7 hPa | 0 mm | - | 394 W/m² | - |
| 1777738530 | 9.44° C | 51% | 1018 hPa | 0 mm | - | 410 W/m² | - |
| 1777737936 | 9.44° C | 50% | 1018.1 hPa | 0 mm | - | 395 W/m² | - |
| 1777737344 | 9.44° C | 47% | 1018.1 hPa | 0 mm | - | 393 W/m² | - |
| 1777736721 | 10° C | 54% | 1018 hPa | 0 mm | - | 391 W/m² | - |
| 1777736127 | 9.44° C | 56% | 1018.1 hPa | 0 mm | - | 386 W/m² | - |
| 1777735533 | 8.89° C | 56% | 1018 hPa | 0 mm | - | 390 W/m² | - |
| 1777734939 | 9.44° C | 57% | 1018.1 hPa | 0 mm | - | 371 W/m² | - |
| 1777734318 | 9.44° C | 59% | 1017.7 hPa | 0 mm | - | 356 W/m² | - |
| 1777733725 | 8.33° C | 61% | 1017.7 hPa | 0 mm | - | 343 W/m² | - |
| 1777733130 | 7.78° C | 61% | 1017.7 hPa | 0 mm | - | 327 W/m² | - |
| 1777732556 | 7.22° C | 66% | 1017.7 hPa | 0 mm | - | 218 W/m² | - |
| 1777731942 | 6.67° C | 66% | 1017.7 hPa | 0 mm | - | 35 W/m² | - |
| 1777731321 | 6.67° C | 68% | 1017.6 hPa | 0 mm | - | 33 W/m² | - |
| 1777730727 | 6.67° C | 70% | 1017.7 hPa | 0 mm | - | 33 W/m² | - |
| 1777730132 | 6.11° C | 71% | 1017.6 hPa | 0 mm | - | 32 W/m² | - |
| 1777729539 | 6.11° C | 73% | 1017.4 hPa | 0 mm | - | 31 W/m² | - |
| 1777728918 | 5.56° C | 72% | 1017.7 hPa | 0 mm | - | 30 W/m² | - |
| 1777728324 | 5.56° C | 73% | 1017.4 hPa | 0 mm | - | 29 W/m² | - |
| 1777727729 | 5.56° C | 74% | 1017.4 hPa | 0 mm | - | 28 W/m² | - |
* Rain latest hour (hover to see other rain measurements)
** Current wind speed in m/s (hover to see current wind gust speed)